Location: Newark
(55.7681°N, 37.7103°E)
Time: 00:30:06
(UTC+00:00)

N. Korean satellite - Pass Details

Date: 27 October 2019
Orbit: 456 x 506 km, 97.2° (Epoch: 12 November)

Event Time Altitude Azimuth Distance (km) Brightness Sun altitude
Rises 15:36:18 0° 211° (SSW) 2,485 10.7 -13.8°
Reaches altitude 10° 15:39:03 10° 235° (SW) 1,624 10.1 -14.2°
Maximum altitude 15:41:06 15° 272° (W) 1,362 10.1 -14.5°
Drops below altitude 10° 15:43:12 10° 308° (NW) 1,648 10.0 -14.8°
Sets 15:46:01 0° 333° (NNW) 2,545 10.6 -15.2°
